sat.trackr.live / text

‹ back to catalog

STARLINK-1716

NORAD 46672 · 2020-073C

PAYLOAD ACTIVE UNKNOWN

§ Identity

Operator
Country
US
Launch date
2020-10-18
Launch site
AFETR
Launch vehicle
Mass (kg)
RCS (m²)

Purposes: comms

External: N2YO · Heavens-Above · Gunter

§ Orbital elements

Epoch: 2026-05-25T00:00:02.000160Z

Period
90.95 min
Inclination
53.0370°
Eccentricity
0.0005742
Mean motion
15.83259229 rev/d
Perigee alt
317.4 km
Apogee alt
325.1 km
Semi-major
6,699.4 km
B*
8.6359e-4
RAAN
181.9459°
Arg perigee
345.4415°
Mean anomaly
173.7420°
Rev number
596

§ Raw data

STARLINK-17161 46672U 20073C   26145.00002315  .00194299  00000+0  86359-3 0  99932 46672  53.0370 181.9459 0005742 345.4415 173.7420 15.83259229  5966

JSON: /api/v1/satellites/46672 · /tle

For live sub-satellite position, see the globe view (requires WebGL).

§ Visibility from observer

Set your observer location to see the next 7 days of passes ≥ 10°. The values pass through the URL so the page stays shareable.

No JS? Fill the form by hand. The geolocation button needs JavaScript.